Eau Claire, WI

4:18 AM CDT on September 21, 2019 (GMT -0500)
Chippewa Valley Regional

Weather History for KEAU - August, 2019

Change the Weather History Date:

Saturday, August 24, 2019

  Actual Average Record
Temperature  
Mean Temperature 64 °F 68 °F  
Max Temperature 73 °F 79 °F 103 °F (1948)
Min Temperature 53 °F 57 °F 39 °F (1942)
Degree Days  
Heating Degree Days 2 1  
Month to date heating degree days 3 19  
Since 1 June heating degree days 70 92  
Since 1 July heating degree days 6 30  
Cooling Degree Days 0 4  
Month to date cooling degree days 94 133  
Year to date cooling degree days 390 499  
Since 1 June cooling degree days 380 467  
Growing Degree Days 14 (Base 50)    
Moisture  
Dew Point 52 °F    
Average Humidity 66    
Maximum Humidity 100    
Minimum Humidity 46    
Precipitation  
Precipitation 0.00 in 0.13 in 1.07 in (2006)
Month to date precipitation 2.78 3.55  
Year to date precipitation 27.74 21.20  
Snow  
Snow 0.00 in 0.00 in 0.00 in ()
Month to date snowfall 0.0 0.0  
Since 1 June snowfall 0.0 0.0  
Since 1 July snowfall 0.0 0.0  
Snow Depth 0.00 in    
Sea Level Pressure  
Sea Level Pressure 30.24 in    
Wind  
Wind Speed 5 mph ()    
Max Wind Speed 16 mph    
Max Gust Speed 23 mph    
Visibility 10.0 miles    
Events      
T = Trace of Precipitation, MM = Missing Value Source: Averaged Metar Reports

Daily Weather History Graph

Daily Weather History Graph

Search for Another Location

Airport or City:

Astronomy

Aug. 24, 2019 Rise Set
Actual Time 6:18 AM CDT 7:57 PM CDT
Civil Twilight 5:47 AM CDT 8:28 PM CDT
Nautical Twilight 5:09 AM CDT 9:05 PM CDT
Astronomical Twilight 4:29 AM CDT 9:46 PM CDT
Moon 12:06 AM CDT (8/24) 3:20 PM CDT (8/24)
Length of Visible Light 14h 40m
Length of Day
13h 39m
Last Quarter, 39% of the Moon is Illuminated
Aug 24
Last Quarter
Aug 30
New
Sep 5
First Quarter
Sep 13
Full
Sep 21
Last Quarter

Hourly Weather History & Observations

Time (CDT) Temp. Dew Point Humidity Pressure Visibility Wind Dir Wind Speed Gust Speed Precip Events Conditions
12:56 AM 54.0 °F 53.1 °F 97% 30.26 in 10.0 mi Calm Calm - N/A   Clear
1:56 AM 57.9 °F 52.0 °F 81% 30.26 in 10.0 mi Variable 3.5 mph - N/A   Clear
2:56 AM 57.0 °F 52.0 °F 83% 30.27 in 10.0 mi ESE 6.9 mph - N/A   Partly Cloudy
3:56 AM 55.9 °F 52.0 °F 87% 30.28 in 10.0 mi Calm Calm - N/A   Overcast
4:56 AM 57.9 °F 51.1 °F 78% 30.28 in 10.0 mi ESE 4.6 mph - N/A   Overcast
5:56 AM 57.0 °F 51.1 °F 81% 30.29 in 10.0 mi ESE 5.8 mph - N/A   Overcast
6:56 AM 55.9 °F 51.1 °F 84% 30.30 in 10.0 mi SSE 5.8 mph - N/A   Mostly Cloudy
7:56 AM 57.9 °F 50.0 °F 75% 30.31 in 10.0 mi Calm Calm - N/A   Overcast
8:56 AM 61.0 °F 51.1 °F 70% 30.31 in 10.0 mi SSE 5.8 mph - N/A   Overcast
9:56 AM 66.0 °F 52.0 °F 60% 30.29 in 10.0 mi SE 10.4 mph 18.4 mph N/A   Partly Cloudy
10:56 AM 68.0 °F 50.0 °F 52% 30.28 in 10.0 mi SSE 12.7 mph 21.9 mph N/A   Scattered Clouds
11:56 AM 70.0 °F 50.0 °F 49% 30.27 in 10.0 mi SE 11.5 mph 21.9 mph N/A   Partly Cloudy
12:56 PM 68.0 °F 50.0 °F 52% 30.27 in 10.0 mi ESE 9.2 mph - N/A   Mostly Cloudy
1:56 PM 70.0 °F 50.0 °F 49% 30.25 in 10.0 mi ESE 9.2 mph - N/A   Mostly Cloudy
2:56 PM 72.0 °F 51.1 °F 48% 30.22 in 10.0 mi ESE 9.2 mph 19.6 mph N/A   Mostly Cloudy
3:56 PM 73.0 °F 51.1 °F 46% 30.20 in 10.0 mi SE 12.7 mph - N/A   Scattered Clouds
4:56 PM 72.0 °F 51.1 °F 48% 30.18 in 10.0 mi ESE 10.4 mph - N/A   Partly Cloudy
5:56 PM 71.1 °F 51.1 °F 49% 30.18 in 10.0 mi SSE 9.2 mph - N/A   Partly Cloudy
6:56 PM 70.0 °F 50.0 °F 49% 30.17 in 10.0 mi South 8.1 mph - N/A   Mostly Cloudy
7:56 PM 68.0 °F 54.0 °F 61% 30.17 in 10.0 mi SE 4.6 mph - N/A   Overcast
8:56 PM 66.9 °F 54.0 °F 63% 30.17 in 10.0 mi ESE 5.8 mph - N/A   Overcast
9:56 PM 64.0 °F 54.0 °F 70% 30.16 in 10.0 mi ESE 6.9 mph - N/A   Clear
10:56 PM 64.0 °F 55.0 °F 73% 30.15 in 10.0 mi SE 8.1 mph - N/A   Mostly Cloudy
11:56 PM 62.1 °F 55.0 °F 78% 30.14 in 10.0 mi SE 5.8 mph - N/A   Mostly Cloudy